Wind_Speed
54 51 46 44 45 47 47 46 46 44 39 38 40 41 40 39 40 40 34 32 34 31 28 28 21 21 34 36 29 27 29 33 38 36 32 33 30 23 19 19 18 21 28 34 35 32 29 27 24 24 24 24 25 26 26 25 24 23 23 23 23 22 22 21 19 19 19 21 22 22 22 22 21 20 20 19 18 18 17 16 16 15 14 12 12 12 13
53 51 49 47 47 49 49 47 47 46 42 40 39 38 37 37 38 36 32 33 34 32 30 27 21 21 32 39 35 28 27 29 34 35 36 36 31 24 21 21 19 20 27 33 34 32 29 27 26 26 26 26 25 26 27 28 27 26 26 26 25 24 22 22 22 21 21 21 22 22 22 22 21 21 20 20 20 19 19 19 18 16 14 13 12 13 14
51 49 49 48 48 51 50 48 48 46 43 41 40 37 35 37 37 34 32 34 34 32 31 30 28 25 28 38 42 38 34 33 35 37 37 35 31 25 23 24 22 23 26 30 30 29 28 28 27 26 26 26 27 27 28 29 30 29 29 28 27 25 22 23 24 24 24 23 22 22 22 22 22 22 22 21 21 21 21 20 18 16 14 13 13 14 16
52 48 47 47 48 51 53 51 49 47 43 40 40 36 33 35 37 35 35 37 34 31 31 33 35 32 29 35 41 39 36 34 37 39 35 29 26 23 24 27 27 26 27 29 30 30 30 29 27 25 25 26 27 28 28 28 30 31 31 29 29 27 24 25 26 25 26 26 24 23 22 23 23 23 23 23 23 22 21 19 18 16 14 13 14 15 17
52 47 44 42 42 47 57 59 53 47 43 40 36 34 33 32 31 33 36 36 31 28 31 35 37 35 31 34 37 35 31 30 32 36 34 29 27 26 26 28 29 28 30 31 33 32 32 32 30 27 28 29 29 28 27 27 29 32 32 31 30 29 27 27 27 27 27 28 26 24 23 23 25 26 26 25 24 23 21 20 19 17 14 14 15 16 18
52 46 43 41 41 48 59 62 54 47 45 42 36 35 36 31 26 28 31 31 30 30 32 36 40 39 35 37 38 35 32 31 30 32 35 34 35 34 33 32 33 33 33 34 35 34 34 35 33 31 33 34 35 34 32 30 31 32 33 32 32 31 30 29 29 29 29 29 28 26 24 25 27 29 28 25 24 24 23 21 19 17 16 16 17 18 20
49 41 42 47 50 54 58 58 56 51 46 41 38 39 40 36 31 31 31 28 29 31 32 34 40 44 42 41 41 40 39 38 36 36 39 40 40 42 41 38 37 37 36 34 33 34 35 35 35 35 36 38 40 41 39 36 34 33 33 33 34 34 33 32 31 31 31 31 30 28 26 27 29 30 28 26 25 25 24 22 20 19 18 18 18 20 23
53 41 40 50 54 53 54 54 56 56 50 44 42 42 43 41 39 38 35 31 29 32 34 33 35 41 44 44 44 44 45 46 45 43 43 42 43 45 46 43 40 40 41 40 38 37 37 35 35 38 41 43 44 45 45 43 40 37 36 35 35 35 36 35 34 34 33 32 31 30 28 28 30 30 29 27 25 25 24 24 23 22 20 19 20 22 25
63 47 39 46 52 52 52 51 52 57 56 50 46 44 43 43 42 40 39 37 34 34 36 36 35 37 40 44 49 49 48 48 50 49 47 47 46 46 46 46 46 45 46 46 44 42 40 39 40 43 45 47 48 49 48 47 44 42 40 38 37 36 37 37 36 36 35 34 33 32 30 29 29 29 30 29 27 26 25 25 24 22 20 19 21 23 26
70 58 43 44 51 54 54 51 48 55 60 56 49 45 45 45 43 42 41 39 39 37 37 37 38 37 35 38 47 53 53 52 51 51 50 50 50 48 45 45 46 48 50 49 47 45 45 46 47 48 48 50 51 52 52 49 46 43 41 39 39 38 38 38 37 37 37 36 35 33 32 30 29 29 30 30 29 28 26 24 23 21 20 20 22 24 27
70 65 52 46 51 56 55 50 46 51 60 60 54 49 48 48 46 44 43 41 40 40 38 37 38 38 36 35 39 46 52 54 53 52 51 50 50 49 47 45 45 46 49 52 52 51 52 52 51 50 50 50 51 52 51 49 48 46 42 40 39 39 40 40 39 38 38 38 37 35 34 32 29 28 29 29 29 28 26 24 22 21 21 21 23 25 28
64 65 58 51 53 57 57 52 46 48 56 61 59 55 54 53 51 48 45 43 41 42 41 39 37 37 37 36 36 38 41 45 48 51 52 53 53 53 51 49 48 48 49 51 53 54 55 54 52 51 50 49 50 50 49 49 49 47 43 41 41 42 42 43 42 40 39 40 39 38 36 34 31 29 29 30 30 28 26 24 22 22 22 23 24 26 28
54 58 56 53 56 61 61 57 51 48 51 57 62 62 59 56 55 53 49 47 46 46 45 42 39 38 37 37 38 39 38 40 43 44 47 51 55 57 57 55 53 53 51 50 50 51 52 53 53 53 52 51 51 51 50 51 50 47 45 45 44 45 45 46 45 44 43 42 41 40 38 37 34 32 31 31 31 29 28 26 24 24 25 25 25 26 30
44 51 52 52 58 63 65 64 59 54 52 54 61 66 65 61 59 56 54 53 52 51 50 47 44 43 42 41 41 41 41 42 43 43 43 44 47 51 56 58 59 59 58 56 54 53 54 55 56 57 56 54 53 53 54 53 51 48 48 49 48 48 48 47 47 47 46 44 43 42 41 40 38 35 33 33 33 31 30 28 27 28 28 28 28 29 33
39 49 52 50 56 63 66 67 65 60 56 54 57 62 65 63 61 59 58 59 58 57 55 51 49 48 46 46 46 46 44 43 44 44 44 43 43 45 48 52 55 58 60 60 61 62 61 61 60 60 59 58 57 56 57 57 55 53 53 53 52 50 50 50 50 49 48 47 46 45 43 42 41 38 37 36 35 33 32 31 31 31 31 31 31 33 36
38 50 56 55 58 64 67 69 69 65 61 57 55 56 57 58 59 60 60 60 60 60 57 54 53 52 50 50 50 51 49 46 45 45 45 45 46 46 47 47 48 49 50 51 55 60 65 67 67 65 63 62 60 59 58 58 58 58 58 58 56 54 54 54 53 51 49 48 47 46 45 44 43 42 41 39 38 36 34 34 34 34 34 33 33 35 37
40 50 58 60 63 65 67 69 70 70 68 64 60 57 56 55 55 55 56 55 54 54 54 52 52 53 53 54 54 53 51 49 47 46 46 47 48 49 50 51 51 50 48 47 47 50 56 63 68 70 71 69 67 64 63 62 61 61 62 61 60 59 59 59 57 54 52 50 49 48 48 48 47 46 45 43 40 38 37 37 37 36 36 36 36 36 38
44 49 55 58 62 66 67 67 68 69 69 67 66 64 62 60 57 54 54 54 52 50 50 48 49 51 52 54 55 54 52 50 49 49 48 48 49 50 50 52 53 53 52 50 48 46 47 51 56 61 66 69 70 70 71 71 69 66 64 64 64 65 65 64 64 62 57 53 51 50 50 51 51 50 49 47 44 41 41 40 39 37 37 39 39 38 39
45 49 52 55 58 62 64 65 65 64 64 65 65 61 59 60 60 55 52 53 54 53 52 50 49 50 50 51 52 52 51 50 51 52 52 51 52 52 52 51 53 54 54 53 52 49 48 48 48 50 54 57 60 62 65 70 74 74 72 69 69 70 71 70 70 72 70 63 59 56 54 54 54 54 53 51 47 45 44 43 40 38 39 41 40 39 40
46 46 49 53 53 53 57 61 59 53 53 59 59 52 49 52 56 52 49 48 50 50 51 50 48 47 48 49 49 50 50 51 51 52 52 52 52 52 52 53 53 55 56 56 55 53 52 52 51 51 52 53 55 56 58 62 68 74 77 77 76 76 77 74 71 74 76 70 64 61 59 58 58 58 56 53 49 48 47 45 41 40 41 41 40 40 41
46 43 45 51 52 44 44 54 56 50 47 50 52 47 45 47 50 49 47 46 48 48 48 47 46 47 48 48 48 49 49 51 51 51 51 50 50 50 51 52 54 55 55 56 56 56 56 56 56 57 57 58 59 60 60 61 63 67 73 79 81 82 83 81 74 67 64 63 64 64 62 61 61 59 56 54 53 51 49 46 44 43 43 42 41 42 44
47 43 42 49 53 44 37 43 52 52 48 48 48 47 45 44 45 45 44 43 45 46 46 46 46 47 48 49 49 49 49 50 51 52 51 51 50 49 49 50 52 52 52 52 53 55 56 56 57 58 59 60 61 62 64 65 64 64 67 73 78 81 83 82 77 67 57 55 61 64 62 62 63 59 55 54 53 51 48 45 44 44 43 42 42 44 46
50 46 44 47 52 48 41 40 46 47 46 47 49 49 47 45 44 43 43 42 41 41 42 44 45 45 46 47 48 48 48 49 50 50 50 49 48 48 48 49 50 50 49 49 50 52 53 53 52 53 54 56 58 59 62 64 62 62 67 73 77 79 76 73 73 71 64 59 60 60 58 60 61 56 52 52 52 49 46 44 44 44 43 42 43 44 47
52 47 44 45 48 48 43 41 43 43 42 45 48 48 47 46 45 43 41 40 39 39 40 42 42 43 44 45 47 47 47 47 47 48 48 47 47 47 47 48 48 48 47 46 47 48 48 47 46 46 48 50 52 54 56 58 59 60 64 66 67 69 69 67 69 70 67 61 57 54 54 58 57 54 52 51 51 49 46 45 46 46 44 44 45 46 47
55 50 45 42 43 44 43 41 41 41 42 44 47 47 46 47 48 48 46 44 42 41 41 41 41 42 43 43 44 45 46 46 46 45 45 45 46 47 46 47 47 46 44 44 43 42 41 40 41 43 44 47 50 52 52 54 58 61 61 57 54 53 57 59 57 51 48 50 51 51 53 55 55 54 53 51 49 48 47 47 47 46 45 46 48 48 47
53 54 51 46 44 44 45 45 44 43 41 40 40 39 41 45 48 47 46 46 45 44 42 41 40 41 41 42 42 42 43 45 45 44 44 44 44 45 45 45 45 45 45 44 42 40 40 39 39 40 42 44 46 49 49 50 53 56 59 57 51 38 30 32 33 34 39 45 50 52 52 50 51 51 51 49 48 48 48 48 48 47 48 50 49 46 43
46 50 52 54 54 53 54 56 54 52 50 47 42 39 39 44 48 48 45 43 43 44 43 41 39 39 41 41 41 41 41 42 43 43 44 43 42 42 42 42 42 42 43 43 42 41 41 39 37 38 41 41 41 42 44 44 43 44 49 50 45 33 26 29 34 39 43 46 48 48 46 47 48 48 48 49 50 50 50 49 48 48 50 50 47 42 40
44 46 46 50 55 59 62 63 62 61 62 60 55 50 46 43 44 47 47 45 44 45 46 42 38 37 39 41 42 42 42 42 42 43 43 42 41 39 39 39 39 39 39 40 41 42 41 38 35 36 39 39 38 37 37 35 33 36 41 43 41 39 37 36 38 42 44 44 43 42 43 45 46 46 48 50 51 51 49 48 46 46 48 48 45 41 42
45 47 46 45 47 49 52 54 55 57 59 57 53 51 51 48 45 43 43 42 42 45 48 47 42 39 38 39 41 43 44 44 44 44 44 43 41 38 37 37 38 38 39 38 38 39 39 36 35 35 35 35 34 32 30 27 25 30 37 38 37 39 41 39 37 38 39 38 38 39 41 43 45 47 49 50 51 50 48 46 45 45 47 47 44 43 43
45 49 48 44 40 38 39 42 46 50 52 50 45 43 45 47 47 45 42 40 40 42 47 49 47 44 42 41 40 42 43 44 45 45 44 42 40 37 35 36 37 35 34 33 32 33 34 34 34 33 32 30 29 29 29 28 27 28 31 31 29 31 35 35 34 34 33 32 34 37 40 43 46 48 49 50 51 51 49 45 43 43 44 43 43 43 43
42 47 49 45 40 35 32 33 38 44 48 48 45 43 42 42 42 43 41 39 39 40 42 44 45 46 46 45 42 42 42 43 42 41 39 38 36 34 34 36 36 33 31 31 31 31 32 33 33 31 29 28 27 26 27 29 31 31 31 29 26 26 28 31 33 33 33 34 36 38 42 44 46 48 50 50 51 50 47 41 38 38 39 40 42 43 44
35 39 42 42 41 40 37 34 34 37 40 42 40 38 38 37 36 36 36 34 34 36 37 38 40 42 43 44 43 42 41 39 37 35 34 34 34 34 34 35 35 33 32 33 33 30 29 30 30 30 28 27 27 26 25 26 27 29 29 29 28 28 29 32 34 35 36 37 38 40 43 45 47 49 51 49 47 44 40 37 36 37 39 41 43 44 45
33 34 35 35 37 39 39 39 39 36 35 33 31 29 28 29 31 32 32 32 31 32 33 35 37 39 40 40 40 39 37 34 32 32 32 33 33 33 33 35 36 35 35 34 31 29 28 28 29 29 29 29 27 26 26 25 26 26 27 28 28 29 30 32 33 34 36 37 39 42 45 48 49 50 48 44 40 37 37 37 38 39 41 42 43 44 45
27 28 28 27 26 26 26 28 32 33 30 27 26 27 27 27 28 30 30 30 30 31 31 32 34 35 36 35 34 33 32 31 31 31 32 32 32 32 32 33 34 35 36 34 31 29 28 30 31 31 31 30 30 29 28 27 27 27 27 28 28 30 32 34 35 36 38 41 43 44 47 48 48 45 42 39 37 37 38 39 41 42 43 42 42 43 42
19 19 20 20 19 19 19 18 21 25 27 26 27 27 26 26 27 28 29 29 29 29 28 27 28 29 30 30 30 30 31 31 31 30 30 29 30 30 30 30 30 31 31 31 30 29 29 31 33 33 32 31 31 32 32 31 30 30 31 31 31 32 34 37 38 39 41 43 44 43 43 44 43 41 39 38 39 40 42 43 44 43 43 42 41 40 37
14 15 16 16 16 17 18 18 17 18 21 24 25 25 25 25 25 25 26 26 26 25 24 24 25 27 28 29 30 31 30 30 30 29 28 27 27 27 26 26 25 25 25 27 31 35 36 35 35 35 34 33 33 34 35 35 34 33 33 34 34 35 36 38 40 42 43 44 44 43 42 41 42 42 42 41 42 43 45 46 45 43 41 39 38 35 34
10 11 12 13 14 15 17 19 19 18 17 18 20 21 22 22 22 22 23 23 24 24 25 26 27 28 29 29 29 29 29 29 28 28 28 28 27 26 25 24 23 22 23 26 31 38 40 39 36 35 35 35 35 36 37 37 37 37 37 37 38 38 38 39 41 44 44 43 44 44 43 43 43 44 44 44 45 46 47 47 45 42 39 36 34 33 33
9 10 11 12 13 14 15 18 19 20 19 18 18 19 20 20 20 21 22 22 23 24 25 27 28 29 29 29 29 29 29 29 29 28 28 29 29 28 26 24 23 23 24 25 29 33 37 38 38 37 38 38 38 38 38 38 38 40 41 41 42 42 42 42 44 45 44 41 40 41 41 42 43 45 46 47 48 49 50 49 46 40 35 32 31 32 32
8 10 11 12 13 14 15 16 17 18 18 18 18 19 19 20 21 21 22 22 23 23 24 25 27 29 30 30 30 30 30 30 29 29 29 30 30 28 26 25 25 26 26 27 28 30 33 35 37 37 38 38 39 39 40 39 37 36 38 40 41 42 43 44 45 45 45 44 43 42 43 45 46 48 50 51 50 50 50 48 42 36 32 30 31 31 31
8 8 9 11 12 13 14 15 16 17 17 18 18 19 19 20 21 22 22 23 23 24 24 25 26 28 29 30 30 31 30 30 29 29 30 30 30 28 27 27 27 28 28 28 28 29 31 34 36 37 38 38 38 38 39 38 36 33 33 34 35 36 38 40 40 41 42 44 45 45 46 46 45 44 44 44 42 41 40 39 35 32 30 30 30 30 29
10 10 10 10 11 11 12 12 13 14 14 15 15 16 16 18 19 20 21 22 22 23 23 24 26 27 28 28 29 30 30 30 30 31 31 30 30 29 29 29 30 31 31 32 32 32 31 32 34 36 37 38 37 36 36 36 35 34 33 33 34 35 36 36 34 33 34 38 40 40 39 37 33 31 30 30 28 28 29 30 30 29 29 28 28 28 29
12 12 12 11 11 10 10 10 10 11 11 11 11 11 12 13 14 15 16 17 18 18 19 20 21 23 25 26 27 28 28 29 29 30 30 29 29 30 30 31 32 33 34 35 36 36 35 34 34 34 34 35 35 34 34 34 35 34 34 34 35 35 36 36 34 33 32 33 32 31 30 29 27 27 27 26 25 25 27 28 28 28 29 28 28 29 29
10 10 10 10 10 9 9 9 9 9 8 8 8 9 9 9 10 11 12 12 13 13 14 15 16 18 19 20 21 22 22 23 23 24 24 25 26 28 30 32 33 34 36 37 37 37 37 37 36 35 34 33 33 33 33 32 32 32 32 32 32 32 33 33 32 31 30 28 26 25 25 26 27 29 30 30 29 29 30 30 29 29 29 29 29 29 29
8 7 7 6 6 6 6 6 6 6 6 6 6 7 7 7 7 7 8 9 10 11 12 13 13 14 15 16 17 18 18 19 20 21 21 22 24 25 27 28 29 31 33 34 34 35 35 36 36 35 35 34 34 32 31 31 30 30 30 29 29 29 29 28 27 27 26 24 22 20 21 22 25 28 30 31 30 30 30 30 29 29 29 29 29 29 29
6 6 5 4 3 2 2 2 2 3 3 3 4 4 5 5 6 6 6 7 8 9 10 11 11 12 13 14 15 15 16 17 18 19 21 22 23 24 25 25 26 27 28 29 30 31 33 34 35 35 34 34 33 31 30 29 28 28 28 28 27 26 26 26 26 25 25 24 23 23 24 24 25 28 30 31 31 31 31 30 30 30 30 29 29 29 29
6 5 4 3 2 0 1 1 2 2 3 4 5 5 6 6 7 8 8 9 9 10 10 11 11 12 13 14 14 14 15 15 16 18 19 20 22 23 24 24 25 26 26 26 27 28 29 30 30 30 30 29 28 27 27 26 25 25 26 26 26 26 26 26 26 25 25 25 26 28 28 28 29 31 33 34 34 34 33 33 32 31 30 29 29 29 29
4 4 3 3 2 2 3 3 4 4 5 6 7 7 8 8 9 10 11 12 12 13 13 14 14 15 15 15 16 16 17 18 18 19 19 20 21 22 22 23 24 24 24 24 24 25 25 25 25 25 24 24 24 23 23 23 23 24 25 26 26 27 27 28 28 27 27 27 28 29 29 30 31 32 34 35 35 35 35 34 32 31 30 30 30 30 30
4 4 4 4 4 4 5 5 6 6 6 7 7 8 8 9 9 11 12 13 14 14 15 16 16 17 17 17 18 18 19 20 20 20 20 21 22 22 22 22 23 23 24 24 24 24 25 25 25 24 24 24 23 23 24 24 25 26 26 27 27 27 28 29 29 29 29 30 31 32 32 33 33 35 35 35 35 35 35 33 32 31 31 31 32 32 32
5 6 6 6 6 6 7 7 7 8 8 8 8 8 8 9 9 11 12 13 14 15 15 15 16 17 17 18 18 19 20 21 21 21 21 22 22 22 23 23 23 23 24 24 24 24 25 25 26 26 26 26 26 26 26 26 27 28 28 28 28 29 29 30 30 31 31 31 31 33 34 34 34 35 36 36 36 36 35 34 33 33 33 33 33 33 33
6 7 7 7 7 7 8 8 9 9 9 9 10 10 11 10 10 10 12 14 15 15 15 15 15 16 17 17 18 18 19 21 22 22 23 23 23 23 23 23 23 23 23 24 24 25 25 25 26 27 28 28 28 28 28 28 29 29 30 30 30 30 31 31 32 32 33 33 33 34 34 35 35 36 37 37 37 37 35 34 33 33 34 34 33 34 34
8 9 9 9 9 9 9 9 9 10 10 11 12 12 13 13 12 12 13 14 16 17 17 16 16 16 17 17 18 19 19 20 22 23 24 24 25 25 25 25 25 25 24 24 24 25 26 27 27 28 29 29 30 29 29 30 30 31 31 31 31 31 32 32 33 33 33 34 34 35 35 35 35 36 37 37 38 38 36 35 34 35 35 35 35 35 35
11 12 11 11 11 11 12 12 12 12 12 13 14 14 14 15 15 15 15 15 16 18 19 18 17 17 18 18 19 20 20 21 23 24 25 26 27 27 28 28 28 27 27 27 26 27 27 28 29 30 30 31 31 31 31 31 32 32 33 33 33 33 33 33 33 34 34 34 35 35 36 36 36 37 37 38 38 39 38 37 37 37 37 37 37 37 37
Wind_Direction
226 224 221 217 220 228 234 237 240 240 235 229 230 235 240 243 245 246 247 247 251 256 251 250 248 211 201 210 221 229 232 234 236 231 222 225 231 232 237 241 244 241 229 224 228 232 233 232 227 227 232 234 235 239 242 245 247 246 245 246 248 248 246 245 240 235 233 232 232 232 232 230 228 226 224 219 213 209 209 215 221 225 231 243 259 272 284
227 223 218 214 212 218 226 231 235 238 237 235 237 239 240 242 245 246 246 244 245 248 245 240 233 213 205 208 214 220 225 233 240 237 230 230 227 220 226 238 246 244 229 223 227 232 235 234 228 225 227 228 232 238 243 248 250 251 249 249 252 253 253 250 245 239 238 237 237 237 237 235 231 227 221 216 212 210 213 217 218 220 231 247 260 271 283
228 225 219 215 211 211 217 225 229 232 233 234 238 241 241 241 242 240 239 240 239 240 241 236 230 224 212 210 214 218 223 231 238 239 239 238 233 229 234 242 249 246 235 229 229 230 234 237 235 233 232 230 231 235 241 245 247 248 250 251 252 256 258 255 249 245 243 242 241 240 240 237 232 225 219 215 214 215 219 220 220 226 239 251 261 273 284
224 225 221 217 212 208 209 216 223 226 227 229 234 240 243 244 245 242 238 239 237 233 235 236 236 233 219 208 212 217 224 235 241 243 242 237 234 240 243 242 246 244 235 231 232 233 236 239 241 243 245 244 242 239 240 243 243 244 248 249 251 256 258 258 257 254 249 246 245 242 241 239 233 225 219 216 216 219 223 223 226 236 247 254 263 274 283
220 222 221 219 218 213 210 212 215 217 221 225 228 236 244 247 249 246 242 241 239 231 231 232 232 230 219 207 207 214 224 233 240 244 244 237 232 235 235 236 238 236 230 229 231 233 237 241 246 252 258 262 261 254 248 243 240 241 245 248 251 255 257 260 262 261 255 251 248 244 243 241 234 227 222 220 219 220 221 224 232 242 250 256 265 275 283
218 219 221 221 221 219 215 212 210 210 217 222 220 225 235 240 241 240 239 238 235 229 227 227 226 224 218 207 204 210 220 225 229 237 240 238 235 234 234 236 236 234 232 232 232 233 238 244 249 253 258 263 265 262 256 246 237 238 242 246 249 253 256 259 262 262 260 255 251 246 243 241 237 232 227 224 220 218 218 224 234 243 249 258 268 278 286
214 214 220 222 222 221 218 212 207 207 213 217 215 218 224 227 229 231 231 229 229 227 224 222 223 223 219 212 206 207 215 222 225 230 233 235 236 237 237 237 237 236 233 229 228 231 235 240 244 247 250 255 259 261 260 255 247 242 242 244 247 250 254 257 259 261 261 258 253 248 244 242 240 237 233 227 222 220 222 228 237 244 252 263 275 283 288
210 207 215 224 227 226 224 217 208 205 208 212 214 215 218 222 225 228 228 226 226 225 221 216 218 222 221 217 212 209 212 218 223 227 230 232 234 237 238 234 233 234 233 229 227 227 228 232 238 243 247 252 256 259 260 260 258 253 249 248 247 248 251 254 257 259 261 258 254 249 245 243 242 242 238 231 226 226 230 235 242 248 258 270 281 287 292
211 207 211 224 229 227 227 225 213 205 206 209 211 213 216 221 224 227 231 232 229 225 220 216 217 221 220 217 215 215 215 218 222 226 230 231 233 238 240 238 234 233 233 234 233 232 232 235 238 241 246 250 254 257 258 259 259 257 254 251 249 248 249 252 255 257 258 258 255 252 249 245 244 244 241 235 232 235 238 241 246 252 263 274 283 290 294
211 209 209 218 225 225 226 227 219 208 206 208 209 210 214 218 222 227 233 236 234 227 221 220 222 224 223 220 217 218 218 219 221 225 230 232 233 237 243 246 245 241 238 238 238 238 240 243 242 242 244 248 250 253 256 257 256 255 255 253 250 250 250 251 252 253 254 256 257 256 255 250 244 242 240 237 238 240 242 245 250 257 266 275 284 290 294
209 209 208 211 218 222 223 224 222 212 206 206 207 209 213 215 218 223 229 232 232 229 225 225 226 226 227 227 224 221 220 221 222 224 229 234 235 234 237 243 248 248 245 243 243 243 245 246 244 242 243 245 247 249 251 253 253 254 255 253 249 248 248 248 248 248 250 254 257 258 257 252 243 237 235 236 238 241 244 248 253 261 268 274 283 290 292
203 205 206 208 213 218 220 220 218 214 209 207 208 212 215 215 215 220 223 225 226 227 228 229 228 225 225 227 228 226 227 227 227 226 227 232 235 235 234 236 241 244 246 246 247 248 249 248 247 246 246 247 247 247 247 248 249 250 252 251 249 246 244 243 243 243 245 249 253 256 256 250 242 235 232 235 238 242 246 251 256 263 270 276 282 287 290
195 198 201 205 209 213 216 215 212 212 211 209 210 213 214 214 216 218 219 220 222 225 227 229 229 225 223 224 226 229 233 236 236 235 232 231 235 238 238 239 239 240 241 243 245 247 250 251 251 251 251 250 248 248 248 248 248 250 250 247 245 243 241 241 242 242 243 245 248 252 252 247 240 236 234 237 242 246 249 254 261 267 272 277 280 284 287
191 193 196 202 207 210 213 214 213 212 211 210 211 212 212 213 216 217 217 220 222 224 226 229 230 227 226 227 230 233 237 238 240 242 241 238 237 237 238 239 240 241 241 242 243 245 248 251 252 252 251 250 248 248 249 248 249 251 248 242 240 240 239 240 241 242 242 242 243 246 246 244 240 237 237 240 244 248 253 258 265 269 272 275 279 282 285
191 193 193 198 205 209 211 213 214 215 212 210 210 211 211 213 216 218 219 221 223 225 228 230 231 229 229 231 234 239 243 242 241 243 246 246 244 242 241 240 239 240 242 245 246 246 246 248 251 252 252 251 250 250 250 250 250 249 244 240 238 238 240 241 241 241 242 242 241 242 242 241 239 237 239 242 245 249 254 259 263 266 269 272 277 280 282
188 193 194 195 201 207 210 210 213 216 215 213 212 212 214 216 218 221 222 224 226 229 231 232 231 230 232 235 238 243 245 245 244 245 247 248 248 248 248 247 245 243 243 246 248 247 246 246 247 248 250 251 252 251 250 250 248 247 246 243 239 237 239 240 239 238 239 240 240 239 238 238 238 238 239 242 245 248 253 257 260 263 266 270 273 277 281
190 192 196 197 199 206 210 210 212 215 217 217 218 219 220 220 220 223 226 227 229 230 231 232 231 231 234 237 241 244 245 245 246 247 248 250 250 250 250 251 253 252 250 249 247 245 245 245 246 248 250 251 252 252 251 250 249 248 249 248 244 240 238 238 237 237 237 237 238 238 236 235 236 238 240 241 244 246 249 254 257 260 263 266 269 274 279
192 191 195 198 200 206 212 214 215 216 217 220 224 227 227 227 227 229 230 230 230 229 229 231 232 233 236 238 241 244 246 246 247 248 249 249 250 252 253 253 255 256 255 253 250 247 247 246 247 248 250 251 253 254 254 254 253 252 251 251 249 245 242 241 240 236 234 236 238 237 235 233 232 235 238 240 241 244 247 250 254 257 261 263 266 272 277
190 191 195 197 200 206 211 215 219 220 219 220 224 229 232 231 231 233 235 234 234 234 234 235 237 238 238 239 241 244 245 246 246 247 247 247 248 251 254 256 257 257 257 256 254 253 254 254 253 252 251 253 255 257 258 258 256 254 253 252 251 249 246 245 242 237 236 240 241 237 234 231 230 232 236 238 239 242 245 248 251 255 260 263 266 272 277
187 188 193 196 200 207 211 213 216 218 219 219 221 226 231 230 229 233 236 237 237 237 237 238 239 240 239 238 240 242 243 244 245 246 246 246 246 248 252 255 257 257 257 256 256 256 257 259 261 261 260 260 260 261 262 261 258 256 254 253 254 255 253 252 248 240 237 238 235 231 231 230 228 229 234 236 238 240 243 248 252 255 260 263 268 273 276
192 187 189 195 200 206 213 215 214 212 213 218 221 225 228 228 230 234 237 237 238 238 238 238 240 241 241 240 241 242 242 243 245 246 247 247 248 250 252 254 255 256 255 255 256 257 258 259 262 264 266 266 264 263 263 262 261 259 256 254 255 256 256 258 255 245 238 233 225 222 226 227 226 227 231 235 238 239 241 246 251 255 259 263 268 273 275
201 197 192 193 198 203 207 213 214 213 214 219 226 230 230 227 228 232 235 237 238 239 239 240 242 243 243 242 242 243 244 245 246 247 249 250 251 252 253 254 255 256 255 255 255 256 258 260 262 264 265 266 266 265 264 264 264 263 260 258 256 254 255 257 255 251 247 238 226 221 223 223 222 225 230 235 239 241 242 245 249 254 259 263 268 272 274
207 206 199 194 199 205 209 211 213 215 217 221 225 229 230 228 227 227 229 231 234 236 238 239 240 242 243 243 243 244 245 246 247 248 250 251 252 254 255 256 257 259 259 260 259 259 259 261 263 264 265 265 265 264 264 264 265 265 265 263 257 254 254 255 252 252 251 242 231 227 225 219 218 222 228 234 239 241 244 247 251 254 259 263 267 271 273
211 209 204 200 201 207 213 217 218 219 223 225 224 224 226 228 226 225 225 228 231 235 237 238 239 241 242 243 244 244 245 246 247 248 250 251 254 255 257 259 261 262 264 264 264 264 263 263 265 267 267 266 264 264 263 263 263 264 265 263 257 252 251 251 253 253 247 236 226 222 217 213 216 221 227 232 237 239 242 246 250 254 258 261 265 267 270
215 214 211 209 208 211 216 222 222 222 226 231 229 225 226 230 231 232 234 236 237 238 240 242 243 243 243 243 244 245 246 246 247 249 250 252 254 256 258 261 264 267 270 270 269 268 266 266 269 269 269 268 267 265 265 267 266 262 261 266 269 260 249 244 245 241 227 216 211 208 206 211 218 223 227 232 237 240 243 246 250 254 257 260 263 265 270
220 220 219 218 218 218 221 226 226 223 225 231 233 231 233 236 237 239 242 241 239 239 241 243 244 244 243 244 244 245 245 246 247 249 250 252 254 257 261 264 267 270 272 271 270 270 268 268 270 270 269 272 272 268 268 273 272 261 257 265 274 267 236 217 211 200 192 195 201 203 208 216 221 224 227 233 237 240 243 247 250 253 256 259 261 264 269
220 221 221 223 226 228 229 232 233 231 232 237 242 246 250 246 240 240 243 243 239 238 239 240 242 244 244 244 244 245 245 245 247 248 249 252 256 261 264 266 269 271 271 270 269 268 267 267 269 271 273 276 276 272 274 278 273 260 254 257 259 245 212 191 189 189 192 197 202 207 214 221 223 226 230 234 236 239 242 246 250 254 259 262 265 268 272
218 219 220 223 227 230 232 235 237 237 237 240 245 250 254 248 238 236 240 242 240 238 238 239 243 246 245 244 244 246 246 246 247 249 251 252 257 262 265 265 267 270 270 269 267 266 264 265 269 274 277 278 277 278 280 280 271 259 253 249 242 232 221 210 203 201 203 206 210 216 222 224 226 230 235 237 239 241 243 248 252 257 262 266 269 273 275
216 217 219 222 226 230 232 234 238 239 237 239 244 248 246 241 237 239 244 247 245 239 237 240 244 246 247 247 247 247 248 249 250 252 255 256 259 263 264 264 265 267 268 268 267 265 264 266 269 271 273 274 276 276 274 270 263 252 244 237 227 219 215 212 210 210 213 215 220 225 227 228 231 235 237 240 242 243 245 249 254 259 264 268 270 272 275
215 215 218 221 224 228 231 231 234 235 234 235 242 246 242 239 241 245 250 253 251 244 240 242 244 245 248 252 252 251 251 251 253 255 258 260 261 262 263 264 265 266 267 268 267 266 265 267 269 269 269 270 271 268 261 256 255 250 244 237 227 216 213 215 218 220 223 227 230 231 232 233 236 238 240 243 245 245 247 250 254 259 263 266 269 272 276
216 219 221 219 218 224 231 230 227 226 227 229 234 238 239 240 243 246 249 251 249 244 242 243 243 243 247 251 253 253 252 253 254 255 257 259 259 259 261 264 265 265 266 270 270 269 269 269 268 268 269 270 270 268 261 256 255 255 250 244 237 230 227 229 230 233 238 241 240 237 236 237 239 242 244 247 248 248 249 253 257 260 263 267 271 276 279
208 214 219 219 220 228 236 238 231 222 217 217 222 229 236 240 242 241 242 242 243 243 242 242 242 242 245 247 249 250 251 253 254 255 254 254 256 258 261 262 260 257 259 265 268 270 271 271 270 270 270 270 271 271 267 261 259 257 249 241 239 241 242 241 240 241 243 244 242 241 241 242 244 246 248 249 250 252 255 258 261 263 267 271 274 278 280
200 204 209 211 215 220 225 229 229 220 211 209 215 223 231 236 234 233 234 236 239 241 241 241 241 241 241 243 245 247 249 251 252 252 251 251 254 258 261 261 257 254 253 256 261 265 267 269 271 270 268 266 266 268 266 262 259 257 251 246 246 246 245 245 245 245 245 245 244 244 245 245 246 248 251 252 254 257 259 260 263 266 270 273 277 280 281
194 200 203 204 207 210 210 214 217 215 214 220 226 230 234 234 231 230 231 233 236 238 240 241 240 239 239 241 243 244 245 247 247 248 249 250 252 255 256 256 254 253 253 254 258 263 267 268 270 271 268 263 261 261 261 259 257 256 255 253 252 251 248 248 249 250 250 250 248 248 248 248 249 252 255 257 258 260 261 262 265 268 270 273 278 281 279
187 196 203 207 212 216 217 216 214 215 219 226 230 232 234 233 230 228 229 231 234 237 238 238 238 237 237 238 239 241 243 243 243 244 246 248 251 253 256 256 256 256 257 259 261 266 270 269 268 267 265 261 258 258 259 258 256 254 253 253 254 253 252 252 254 255 255 253 251 250 252 252 253 256 258 259 260 261 262 264 266 267 268 272 277 277 274
184 193 202 210 215 218 223 227 224 217 216 217 218 219 222 223 223 225 227 229 231 231 231 230 231 233 234 235 238 240 242 242 242 243 244 247 251 254 257 261 263 264 265 266 266 267 270 270 269 266 264 262 261 261 262 262 260 258 257 256 257 257 257 257 257 258 259 257 255 254 254 255 255 256 256 257 259 262 263 265 266 266 269 273 274 272 270
178 187 195 204 211 215 219 223 222 219 215 212 210 211 213 215 219 222 225 228 229 228 228 230 232 234 237 238 240 243 245 246 247 247 248 251 253 255 257 261 264 265 264 261 259 259 260 262 263 263 262 261 259 258 259 261 262 262 261 259 258 259 260 260 259 258 258 258 255 254 254 255 257 257 256 255 257 261 263 265 266 266 267 267 267 266 268
175 183 188 196 203 209 214 217 218 219 220 219 218 218 219 220 224 227 230 233 234 233 233 233 234 237 240 243 245 247 249 249 250 251 251 253 255 257 259 262 264 265 264 262 258 255 253 253 253 255 255 255 255 255 256 258 260 260 259 258 257 257 259 261 261 261 261 260 258 255 253 252 255 257 258 257 258 260 261 261 260 258 258 259 261 264 266
179 183 189 194 198 202 206 209 212 216 220 223 225 227 228 229 231 232 235 237 238 237 237 237 237 238 240 243 246 249 251 251 252 252 253 254 257 260 263 265 266 268 268 266 263 260 257 255 255 255 255 256 256 256 257 257 256 255 255 255 256 256 258 259 261 262 263 263 262 260 257 254 255 257 258 258 259 260 258 256 254 253 253 256 259 261 262
178 184 192 198 203 205 206 208 211 215 219 222 226 229 232 234 236 238 239 239 240 240 240 239 240 242 243 244 248 250 252 253 254 254 255 257 261 263 266 267 268 269 269 267 265 263 261 260 259 258 257 257 256 256 256 256 255 254 253 254 255 257 258 259 261 263 262 260 260 260 260 259 259 260 259 257 256 256 255 252 251 252 253 255 257 258 260
159 171 182 191 199 202 202 204 209 212 215 219 223 227 231 234 237 239 242 243 243 244 244 243 245 247 249 251 253 255 256 257 257 257 258 261 263 264 265 265 265 265 265 264 263 261 260 259 259 258 258 257 257 257 257 257 257 257 257 257 257 258 258 259 259 258 257 257 257 258 259 258 254 253 256 257 255 254 253 251 251 253 254 255 256 257 258
142 150 159 167 174 180 184 189 196 201 205 211 217 222 227 232 236 239 242 244 246 247 248 247 248 249 251 253 255 257 258 259 258 259 261 263 264 264 264 264 263 264 264 263 262 261 261 260 259 259 259 259 259 259 259 260 261 261 261 259 257 256 256 256 252 249 250 254 255 255 257 254 244 240 247 257 259 255 253 253 254 254 255 256 257 257 259
130 135 140 144 148 154 162 169 176 183 190 198 206 214 221 228 234 240 244 247 249 252 253 254 254 254 254 254 255 256 259 260 261 263 265 266 266 266 265 264 263 263 264 264 264 264 263 262 262 261 261 261 261 261 261 261 261 261 259 257 253 250 250 250 248 245 246 250 252 253 256 255 246 242 248 257 260 257 255 255 255 256 256 257 258 259 260
113 117 121 123 125 131 138 146 154 165 174 183 193 203 211 218 228 240 249 255 259 262 263 264 264 263 261 261 261 261 263 264 266 267 268 268 268 267 266 265 265 263 263 263 263 264 263 263 263 262 261 260 259 258 257 255 254 254 253 251 247 244 242 241 241 240 241 241 242 245 249 250 250 250 252 253 253 253 253 253 254 256 257 258 259 260 261
90 92 92 93 98 114 135 151 172 187 196 206 214 220 226 232 239 246 254 262 267 269 269 269 269 268 267 266 266 265 266 266 267 267 267 267 266 265 265 265 264 262 260 259 260 260 261 261 261 260 259 257 256 254 251 249 247 247 248 247 245 244 242 240 239 238 237 233 231 234 238 243 249 253 252 250 250 253 256 257 258 259 259 260 260 261 262
71 71 71 71 68 64 259 256 253 252 257 261 259 256 256 258 260 260 259 259 258 260 262 263 263 262 262 262 263 263 262 261 260 259 260 261 260 260 260 260 259 257 255 255 255 257 258 258 258 258 256 255 254 253 250 248 246 246 247 247 246 245 244 243 240 239 236 231 230 235 240 242 244 249 253 254 255 257 259 260 261 262 262 263 263 264 264
34 39 40 26 358 334 316 305 298 291 282 276 273 273 272 271 269 267 264 260 257 257 258 258 258 259 259 260 260 260 258 256 254 252 251 251 251 251 252 253 254 255 255 254 254 254 254 254 255 255 255 254 254 253 252 251 249 247 247 248 248 247 247 246 243 241 240 237 235 236 238 238 240 246 251 255 258 259 261 262 264 265 265 265 264 264 264
336 343 344 338 330 323 315 307 300 292 286 285 287 288 287 285 281 276 271 267 265 265 265 265 266 266 266 264 263 263 262 262 261 260 258 256 255 253 253 252 253 255 256 255 254 253 252 252 252 251 250 250 250 250 249 250 250 249 249 250 250 250 251 250 249 247 247 245 243 243 244 245 246 250 254 257 261 263 265 266 266 266 265 265 264 264 264
313 313 311 308 307 307 306 305 301 297 295 296 294 287 282 282 282 281 279 276 273 271 271 271 272 273 272 271 269 267 267 267 267 267 266 265 263 261 260 257 256 256 257 257 256 255 255 254 254 253 252 251 250 250 249 250 250 250 250 251 250 250 250 251 251 251 251 250 249 250 251 251 252 254 257 260 262 264 265 267 267 267 266 266 266 265 265
312 309 305 302 300 302 304 308 309 306 303 302 298 292 287 285 285 284 284 283 282 280 279 279 278 278 277 277 276 275 273 272 271 270 269 268 267 266 265 263 261 260 259 258 258 258 258 257 257 257 257 255 254 252 251 251 251 250 250 250 250 251 251 251 252 252 252 252 253 253 254 255 255 257 258 259 261 262 263 265 266 266 266 266 266 265 265
308 307 304 300 298 297 298 299 300 299 298 297 296 294 292 291 290 289 287 286 286 285 284 283 281 280 278 277 277 278 277 276 275 274 272 271 269 268 267 265 264 263 262 260 260 260 261 261 260 260 260 259 258 257 256 255 255 254 253 252 251 251 252 253 254 255 255 255 255 255 256 256 258 258 259 261 262 262 262 262 261 261 262 261 261 260 260
298 297 295 293 291 290 288 286 284 283 283 283 282 281 282 285 286 286 285 283 282 282 282 281 279 277 276 274 274 274 272 271 271 270 270 269 268 268 267 266 264 263 262 261 260 260 261 262 263 263 263 263 262 262 261 260 260 260 259 259 258 257 256 256 256 257 258 258 258 258 258 258 258 259 260 261 262 263 263 262 261 260 260 260 260 259 259
Height
5756 5762 5767 5772 5775 5776 5778 5780 5783 5786 5790 5792 5794 5796 5798 5801 5801 5803 5809 5813 5812 5815 5818 5820 5823 5828 5831 5833 5835 5836 5837 5837 5837 5840 5842 5843 5844 5848 5851 5853 5854 5854 5856 5858 5860 5862 5863 5865 5867 5868 5869 5870 5872 5873 5874 5875 5876 5877 5878 5879 5880 5881 5882 5882 5883 5883 5883 5883 5883 5883 5883 5884 5885 5886 5886 5887 5888 5889 5890 5891 5891 5892 5892 5892 5892 5892 5892
5748 5755 5760 5765 5769 5771 5773 5775 5777 5780 5784 5786 5789 5793 5796 5797 5797 5801 5806 5808 5808 5812 5815 5817 5820 5824 5827 5829 5830 5832 5833 5833 5833 5835 5836 5838 5840 5843 5847 5849 5851 5853 5854 5856 5858 5859 5860 5862 5864 5866 5867 5868 5870 5871 5872 5872 5873 5875 5875 5876 5877 5878 5879 5880 5881 5881 5881 5881 5881 5881 5881 5882 5882 5883 5883 5884 5885 5886 5887 5888 5888 5889 5890 5890 5890 5890 5890
5739 5746 5753 5758 5761 5765 5768 5770 5772 5775 5778 5781 5784 5787 5790 5792 5794 5797 5801 5801 5804 5809 5813 5814 5816 5819 5822 5825 5826 5827 5829 5829 5829 5831 5833 5836 5838 5840 5842 5845 5848 5851 5852 5854 5855 5856 5857 5858 5860 5862 5865 5866 5868 5869 5870 5870 5871 5872 5873 5873 5874 5875 5877 5878 5878 5878 5878 5878 5879 5879 5879 5879 5880 5880 5881 5881 5882 5883 5884 5885 5886 5887 5887 5888 5888 5888 5887
5732 5738 5746 5750 5756 5761 5762 5763 5766 5768 5772 5775 5778 5781 5785 5788 5790 5794 5795 5795 5799 5806 5810 5810 5811 5813 5817 5820 5822 5824 5825 5825 5826 5827 5830 5833 5835 5837 5839 5841 5844 5848 5849 5850 5851 5852 5854 5855 5856 5859 5861 5863 5864 5866 5867 5868 5869 5869 5869 5871 5871 5873 5874 5874 5874 5875 5876 5876 5876 5877 5877 5877 5877 5877 5878 5878 5879 5880 5881 5882 5883 5884 5884 5885 5885 5885 5884
5726 5733 5740 5746 5752 5753 5752 5753 5758 5763 5767 5771 5774 5778 5781 5784 5787 5789 5790 5792 5797 5803 5805 5806 5808 5810 5814 5817 5819 5821 5822 5823 5823 5825 5827 5829 5831 5833 5834 5836 5840 5843 5845 5847 5848 5849 5850 5851 5853 5855 5857 5858 5860 5862 5865 5866 5866 5866 5866 5868 5869 5870 5871 5871 5871 5872 5872 5873 5873 5874 5874 5874 5874 5874 5874 5875 5877 5878 5878 5879 5880 5880 5881 5882 5882 5881 5881
5722 5728 5735 5742 5743 5741 5742 5748 5756 5761 5764 5766 5770 5773 5776 5781 5784 5784 5785 5789 5794 5797 5799 5802 5805 5808 5811 5813 5815 5816 5818 5819 5820 5822 5825 5827 5829 5830 5831 5833 5836 5838 5840 5842 5844 5846 5847 5848 5850 5852 5853 5854 5856 5858 5860 5861 5862 5862 5864 5865 5866 5867 5867 5868 5868 5869 5869 5870 5871 5871 5871 5871 5871 5871 5872 5873 5874 5875 5876 5876 5877 5878 5878 5878 5878 5878 5878
5719 5723 5728 5732 5730 5731 5739 5747 5754 5758 5761 5764 5767 5768 5771 5776 5778 5779 5781 5784 5788 5791 5794 5798 5801 5803 5805 5808 5811 5813 5814 5815 5816 5817 5820 5823 5825 5826 5828 5830 5832 5834 5836 5837 5839 5841 5843 5844 5846 5847 5848 5850 5851 5852 5854 5856 5858 5859 5861 5862 5863 5863 5864 5864 5865 5865 5866 5867 5867 5868 5868 5868 5868 5868 5869 5870 5871 5872 5873 5874 5874 5875 5875 5875 5875 5875 5874
5713 5717 5721 5722 5723 5729 5736 5741 5748 5753 5756 5760 5762 5762 5765 5769 5771 5773 5776 5779 5783 5787 5789 5793 5795 5797 5800 5805 5808 5809 5810 5810 5811 5812 5814 5817 5819 5820 5823 5826 5828 5829 5830 5832 5833 5835 5837 5839 5841 5842 5843 5845 5846 5847 5849 5850 5853 5855 5857 5857 5859 5860 5860 5861 5862 5862 5862 5863 5864 5864 5864 5864 5865 5866 5867 5867 5868 5869 5870 5870 5871 5871 5871 5872 5872 5871 5871
5706 5712 5717 5719 5722 5727 5731 5735 5742 5747 5750 5753 5756 5759 5761 5764 5766 5769 5772 5775 5779 5781 5784 5788 5790 5792 5795 5799 5802 5804 5806 5807 5807 5808 5810 5812 5813 5815 5816 5819 5822 5824 5825 5827 5829 5830 5832 5833 5834 5836 5838 5840 5841 5842 5844 5845 5847 5849 5851 5852 5854 5856 5857 5858 5858 5858 5859 5859 5860 5860 5861 5861 5862 5863 5864 5864 5865 5865 5865 5866 5867 5867 5868 5868 5868 5868 5867
5700 5706 5712 5716 5719 5722 5725 5729 5735 5740 5744 5748 5752 5756 5758 5760 5762 5765 5768 5771 5773 5776 5780 5783 5786 5788 5790 5793 5796 5798 5801 5803 5804 5806 5807 5808 5810 5812 5813 5814 5817 5819 5821 5823 5825 5826 5827 5828 5830 5832 5833 5834 5836 5837 5838 5840 5842 5843 5845 5847 5849 5851 5852 5854 5855 5855 5855 5855 5856 5857 5857 5858 5859 5860 5860 5861 5861 5861 5861 5862 5863 5863 5864 5864 5864 5864 5863
5693 5699 5704 5710 5715 5718 5722 5725 5730 5735 5739 5742 5747 5751 5752 5755 5759 5762 5764 5766 5769 5772 5776 5779 5782 5784 5786 5788 5790 5793 5796 5799 5801 5803 5804 5806 5807 5809 5810 5811 5813 5814 5816 5818 5820 5821 5822 5824 5826 5827 5828 5829 5830 5831 5833 5835 5836 5837 5839 5842 5844 5846 5848 5849 5850 5851 5851 5851 5852 5853 5853 5854 5855 5855 5856 5857 5857 5857 5857 5858 5859 5859 5859 5860 5860 5860 5859
5684 5691 5698 5705 5710 5715 5718 5721 5725 5730 5734 5738 5742 5744 5746 5750 5755 5757 5759 5762 5765 5768 5771 5774 5778 5780 5782 5785 5787 5789 5793 5795 5797 5800 5801 5802 5803 5804 5806 5808 5809 5811 5812 5813 5814 5816 5816 5818 5821 5822 5823 5823 5824 5826 5828 5829 5829 5831 5834 5836 5839 5841 5842 5843 5844 5846 5847 5847 5847 5848 5849 5849 5850 5851 5852 5852 5852 5853 5853 5854 5854 5855 5855 5855 5856 5856 5855
5676 5684 5691 5698 5703 5706 5710 5714 5718 5723 5728 5733 5735 5737 5741 5746 5750 5753 5756 5759 5761 5764 5767 5770 5773 5776 5778 5781 5783 5786 5789 5790 5792 5794 5796 5798 5799 5800 5802 5804 5805 5807 5807 5809 5810 5811 5811 5813 5814 5815 5816 5817 5818 5820 5822 5822 5824 5826 5829 5830 5831 5833 5835 5836 5838 5840 5842 5842 5843 5844 5845 5845 5845 5846 5847 5847 5848 5849 5849 5850 5850 5850 5850 5851 5851 5851 5850
5671 5677 5683 5690 5695 5698 5702 5708 5712 5716 5722 5726 5729 5732 5738 5742 5745 5749 5753 5755 5757 5760 5763 5766 5769 5771 5773 5776 5779 5781 5784 5786 5787 5788 5790 5792 5794 5795 5797 5798 5800 5801 5802 5804 5806 5807 5807 5807 5807 5808 5810 5811 5812 5814 5815 5817 5819 5821 5822 5823 5823 5825 5827 5829 5832 5834 5836 5837 5838 5839 5840 5840 5841 5842 5842 5843 5843 5844 5844 5845 5845 5845 5845 5846 5846 5846 5845
5667 5670 5675 5682 5687 5691 5697 5703 5707 5712 5717 5720 5724 5729 5733 5737 5741 5745 5748 5750 5752 5755 5759 5762 5765 5767 5769 5771 5774 5776 5778 5780 5782 5783 5784 5786 5787 5789 5790 5792 5794 5796 5798 5799 5800 5801 5802 5802 5802 5802 5803 5805 5806 5808 5809 5811 5813 5814 5814 5815 5816 5818 5821 5823 5825 5826 5829 5831 5832 5833 5834 5836 5837 5837 5838 5838 5839 5839 5840 5840 5840 5840 5840 5840 5840 5840 5839
5661 5664 5668 5673 5678 5683 5690 5697 5703 5708 5713 5716 5721 5726 5730 5733 5736 5739 5742 5745 5748 5751 5755 5758 5760 5763 5765 5766 5769 5771 5773 5775 5776 5777 5778 5779 5780 5782 5784 5785 5787 5790 5792 5793 5794 5794 5794 5795 5795 5796 5796 5798 5800 5802 5803 5804 5805 5806 5807 5808 5810 5812 5814 5815 5817 5818 5820 5823 5825 5827 5829 5831 5832 5832 5833 5833 5834 5835 5835 5835 5835 5835 5835 5834 5834 5834 5833
5657 5660 5664 5669 5673 5679 5685 5692 5697 5703 5709 5714 5718 5722 5725 5728 5731 5734 5737 5741 5743 5747 5750 5753 5755 5758 5759 5761 5763 5765 5767 5769 5770 5771 5772 5773 5774 5776 5777 5778 5780 5782 5784 5786 5787 5787 5788 5788 5789 5790 5791 5791 5793 5795 5796 5797 5797 5799 5800 5802 5804 5805 5806 5807 5809 5811 5812 5814 5817 5820 5823 5824 5826 5827 5827 5828 5829 5829 5829 5829 5829 5829 5829 5828 5828 5828 5828
5654 5658 5662 5668 5672 5677 5683 5689 5693 5698 5704 5709 5713 5717 5720 5723 5726 5729 5732 5735 5738 5741 5744 5747 5749 5751 5753 5755 5757 5759 5761 5763 5765 5766 5766 5767 5768 5769 5771 5772 5773 5774 5776 5778 5780 5782 5783 5783 5784 5785 5786 5786 5788 5788 5789 5789 5790 5791 5792 5794 5797 5798 5799 5799 5801 5802 5803 5805 5808 5812 5815 5817 5818 5820 5821 5821 5822 5823 5823 5823 5823 5823 5823 5823 5822 5822 5822
5652 5656 5660 5666 5671 5674 5679 5684 5689 5693 5698 5703 5707 5711 5715 5718 5722 5726 5728 5731 5734 5736 5739 5741 5743 5745 5747 5750 5752 5754 5756 5758 5759 5759 5760 5761 5763 5763 5765 5766 5766 5767 5769 5770 5772 5774 5775 5777 5779 5780 5781 5782 5783 5782 5782 5782 5782 5782 5783 5785 5786 5788 5789 5790 5791 5790 5790 5793 5799 5803 5806 5809 5810 5811 5812 5814 5815 5817 5817 5817 5818 5818 5817 5817 5817 5817 5817
5650 5654 5659 5664 5670 5672 5675 5680 5684 5690 5695 5699 5703 5707 5710 5714 5718 5721 5724 5727 5729 5731 5734 5736 5738 5739 5742 5744 5746 5748 5750 5751 5752 5753 5754 5755 5757 5758 5760 5760 5760 5761 5763 5764 5765 5767 5768 5770 5772 5773 5775 5776 5776 5776 5776 5775 5773 5773 5775 5775 5776 5776 5777 5778 5779 5777 5774 5777 5786 5793 5797 5800 5802 5803 5805 5807 5808 5810 5811 5812 5812 5812 5812 5812 5812 5812 5812
5647 5651 5656 5662 5667 5671 5674 5677 5681 5686 5692 5696 5699 5702 5705 5709 5713 5717 5719 5722 5724 5726 5729 5731 5732 5734 5736 5738 5740 5742 5743 5745 5746 5747 5748 5750 5751 5753 5754 5755 5755 5755 5757 5758 5759 5760 5762 5764 5765 5767 5767 5767 5767 5767 5767 5766 5765 5766 5766 5765 5764 5764 5764 5764 5766 5767 5767 5768 5774 5781 5786 5790 5793 5795 5796 5799 5801 5803 5805 5806 5806 5806 5806 5807 5807 5807 5807
5644 5648 5652 5657 5662 5667 5672 5675 5677 5683 5688 5693 5696 5699 5701 5704 5708 5711 5714 5716 5719 5721 5724 5726 5728 5729 5730 5732 5734 5736 5737 5739 5740 5741 5742 5744 5745 5747 5748 5748 5748 5749 5751 5753 5754 5755 5756 5758 5760 5760 5759 5758 5758 5757 5757 5757 5758 5758 5756 5753 5751 5751 5749 5749 5754 5761 5766 5767 5768 5771 5775 5780 5784 5786 5788 5791 5794 5796 5798 5799 5800 5800 5801 5801 5801 5802 5801
5641 5644 5648 5652 5657 5662 5668 5672 5676 5681 5685 5688 5690 5693 5696 5699 5702 5704 5707 5710 5713 5716 5719 5720 5722 5724 5725 5727 5728 5730 5732 5733 5734 5735 5737 5738 5740 5741 5742 5742 5743 5744 5745 5747 5748 5749 5751 5752 5753 5753 5752 5751 5750 5749 5748 5749 5749 5749 5744 5736 5732 5734 5737 5740 5745 5751 5756 5760 5763 5765 5769 5771 5775 5779 5782 5784 5787 5789 5791 5793 5794 5794 5795 5795 5796 5796 5795
5640 5643 5646 5649 5653 5658 5663 5668 5673 5677 5681 5683 5684 5686 5690 5694 5697 5699 5702 5705 5708 5711 5713 5715 5717 5718 5720 5721 5723 5725 5726 5728 5729 5730 5732 5733 5734 5735 5736 5736 5737 5738 5739 5741 5741 5742 5744 5745 5746 5745 5744 5743 5742 5741 5741 5741 5740 5741 5735 5722 5716 5722 5728 5732 5736 5739 5743 5749 5755 5758 5761 5763 5766 5771 5774 5777 5779 5782 5784 5786 5787 5788 5789 5789 5789 5789 5789
5639 5642 5645 5648 5651 5655 5658 5663 5669 5674 5676 5678 5680 5682 5685 5689 5692 5695 5698 5701 5703 5706 5708 5710 5712 5713 5715 5716 5718 5719 5721 5722 5724 5725 5726 5727 5728 5729 5730 5731 5731 5732 5733 5734 5735 5736 5736 5737 5738 5737 5736 5735 5734 5734 5735 5733 5730 5731 5727 5718 5714 5718 5719 5720 5723 5727 5731 5739 5746 5749 5752 5756 5760 5764 5768 5771 5774 5776 5778 5780 5781 5782 5782 5783 5782 5783 5783
5637 5641 5644 5646 5649 5652 5656 5659 5664 5669 5672 5674 5676 5680 5683 5686 5689 5691 5693 5696 5699 5701 5703 5705 5707 5709 5710 5712 5713 5714 5716 5717 5719 5720 5721 5722 5723 5724 5725 5726 5726 5727 5727 5727 5728 5728 5728 5729 5730 5729 5728 5728 5727 5726 5727 5724 5719 5718 5717 5714 5714 5717 5716 5715 5718 5722 5725 5732 5738 5742 5746 5751 5755 5759 5763 5765 5768 5771 5772 5774 5775 5776 5776 5776 5776 5777 5778
5634 5638 5642 5644 5647 5650 5653 5656 5660 5665 5668 5670 5672 5675 5678 5681 5683 5685 5687 5690 5693 5696 5699 5701 5702 5704 5706 5707 5709 5710 5711 5712 5714 5715 5716 5717 5719 5719 5720 5721 5721 5721 5721 5721 5721 5721 5721 5722 5723 5722 5720 5721 5721 5720 5719 5715 5711 5708 5707 5708 5712 5716 5716 5716 5717 5719 5723 5729 5734 5739 5744 5748 5751 5755 5757 5759 5761 5763 5764 5767 5769 5770 5770 5770 5770 5771 5772
5631 5634 5638 5641 5644 5647 5650 5654 5657 5661 5664 5667 5669 5672 5675 5676 5677 5679 5682 5685 5688 5691 5693 5696 5698 5700 5701 5703 5704 5705 5706 5708 5709 5709 5710 5712 5714 5714 5715 5716 5716 5715 5715 5715 5715 5715 5716 5717 5717 5716 5714 5713 5714 5714 5711 5708 5706 5704 5703 5704 5707 5710 5712 5715 5717 5719 5723 5727 5732 5737 5741 5744 5747 5751 5752 5753 5755 5757 5759 5761 5762 5764 5764 5765 5765 5765 5765
5628 5632 5636 5639 5642 5645 5649 5653 5656 5658 5662 5666 5668 5670 5670 5671 5673 5675 5678 5681 5684 5686 5688 5690 5693 5695 5696 5698 5699 5700 5701 5703 5703 5704 5705 5707 5709 5710 5710 5710 5711 5710 5709 5709 5710 5710 5711 5712 5712 5712 5710 5709 5709 5709 5706 5704 5704 5704 5702 5702 5703 5704 5707 5712 5716 5719 5723 5727 5731 5734 5737 5740 5743 5745 5746 5747 5749 5751 5752 5754 5756 5757 5758 5759 5759 5759 5759
5627 5630 5634 5637 5641 5644 5647 5650 5652 5654 5659 5663 5665 5664 5664 5666 5668 5671 5674 5677 5679 5681 5683 5685 5688 5690 5692 5693 5694 5695 5696 5697 5698 5699 5701 5702 5703 5705 5705 5705 5704 5704 5704 5705 5706 5706 5706 5706 5706 5706 5706 5705 5705 5705 5704 5704 5704 5704 5704 5703 5703 5704 5707 5711 5715 5718 5722 5725 5728 5731 5733 5736 5738 5739 5740 5742 5743 5744 5746 5748 5750 5751 5752 5753 5753 5753 5752
5626 5628 5632 5636 5639 5641 5643 5645 5646 5649 5653 5656 5658 5659 5660 5662 5664 5666 5669 5672 5674 5676 5678 5680 5682 5685 5687 5688 5689 5690 5691 5692 5694 5695 5697 5697 5698 5700 5700 5700 5700 5699 5699 5700 5700 5700 5699 5700 5700 5701 5701 5701 5701 5701 5702 5702 5702 5703 5704 5705 5705 5706 5708 5711 5714 5716 5719 5721 5724 5726 5728 5730 5732 5734 5735 5737 5738 5739 5741 5742 5744 5745 5746 5746 5746 5746 5746
5626 5627 5630 5635 5638 5640 5640 5641 5643 5645 5647 5649 5652 5654 5656 5658 5660 5662 5665 5667 5669 5671 5673 5675 5677 5680 5682 5683 5684 5685 5687 5688 5689 5691 5692 5693 5694 5694 5695 5695 5695 5695 5695 5695 5695 5695 5695 5694 5694 5695 5696 5696 5697 5698 5698 5699 5699 5700 5701 5703 5704 5706 5707 5709 5711 5713 5714 5716 5718 5721 5723 5724 5726 5727 5728 5730 5732 5734 5736 5737 5738 5739 5739 5740 5740 5740 5740
5623 5625 5628 5632 5636 5637 5637 5638 5639 5641 5643 5644 5647 5650 5652 5654 5656 5658 5661 5663 5666 5667 5669 5671 5672 5674 5677 5678 5680 5681 5682 5684 5685 5686 5687 5689 5689 5689 5689 5689 5689 5689 5690 5690 5690 5691 5691 5690 5690 5690 5691 5692 5693 5695 5695 5696 5697 5697 5698 5699 5701 5703 5704 5706 5707 5709 5710 5712 5714 5715 5716 5718 5719 5721 5723 5725 5728 5730 5730 5731 5732 5732 5733 5733 5734 5734 5734
5621 5623 5626 5629 5631 5633 5634 5635 5637 5639 5640 5641 5644 5646 5649 5651 5653 5655 5657 5660 5662 5664 5665 5666 5668 5670 5672 5674 5676 5677 5678 5680 5681 5681 5682 5683 5684 5684 5684 5684 5684 5684 5684 5685 5686 5686 5687 5686 5686 5687 5687 5689 5690 5691 5692 5693 5694 5695 5696 5697 5698 5699 5700 5702 5703 5705 5706 5707 5709 5710 5711 5713 5715 5718 5720 5721 5722 5723 5724 5724 5725 5725 5726 5727 5727 5727 5727
5620 5622 5624 5626 5628 5630 5632 5633 5635 5637 5638 5640 5642 5644 5646 5648 5650 5652 5655 5657 5659 5660 5662 5663 5665 5666 5669 5670 5672 5673 5674 5675 5676 5677 5677 5678 5678 5679 5679 5679 5679 5679 5679 5679 5680 5681 5682 5682 5683 5683 5684 5685 5686 5687 5688 5689 5690 5691 5692 5694 5695 5696 5697 5698 5700 5701 5702 5703 5705 5706 5707 5709 5711 5713 5714 5715 5716 5717 5717 5718 5718 5719 5720 5720 5720 5720 5720
5618 5620 5622 5624 5625 5627 5629 5631 5633 5635 5636 5637 5639 5641 5643 5645 5648 5650 5652 5654 5656 5658 5659 5660 5662 5663 5665 5666 5668 5668 5669 5670 5671 5672 5672 5673 5673 5674 5674 5674 5674 5674 5674 5675 5675 5676 5676 5678 5679 5679 5680 5681 5682 5683 5684 5685 5686 5687 5689 5690 5691 5692 5693 5695 5696 5697 5697 5699 5701 5702 5703 5704 5705 5706 5707 5708 5709 5711 5711 5712 5712 5712 5713 5713 5713 5713 5713
5617 5619 5620 5622 5623 5625 5626 5629 5631 5633 5634 5636 5637 5639 5641 5643 5645 5647 5649 5651 5653 5655 5656 5657 5658 5659 5660 5662 5663 5664 5664 5665 5666 5667 5667 5667 5668 5669 5669 5669 5669 5670 5671 5671 5672 5672 5673 5674 5675 5676 5676 5677 5679 5680 5681 5682 5683 5684 5686 5687 5687 5688 5690 5691 5692 5692 5692 5694 5695 5696 5697 5698 5699 5700 5701 5702 5703 5704 5705 5705 5705 5706 5706 5706 5706 5707 5707
5617 5619 5620 5621 5622 5624 5625 5627 5629 5631 5633 5634 5636 5637 5639 5641 5643 5645 5646 5648 5649 5651 5652 5653 5654 5655 5656 5657 5658 5658 5659 5660 5661 5661 5662 5662 5663 5663 5664 5664 5664 5665 5666 5667 5668 5669 5670 5671 5672 5673 5673 5674 5676 5677 5678 5679 5680 5681 5682 5683 5683 5684 5686 5687 5687 5687 5688 5689 5689 5690 5692 5692 5693 5693 5694 5695 5696 5697 5697 5697 5698 5698 5699 5700 5700 5700 5701
5617 5619 5620 5621 5622 5623 5625 5626 5628 5630 5631 5633 5634 5636 5637 5639 5640 5641 5643 5644 5645 5647 5648 5649 5649 5650 5651 5652 5653 5653 5654 5655 5656 5656 5657 5658 5658 5659 5659 5659 5660 5661 5662 5663 5664 5665 5666 5667 5668 5669 5670 5671 5672 5673 5674 5675 5676 5677 5677 5677 5678 5679 5680 5680 5681 5682 5683 5684 5685 5685 5687 5688 5687 5687 5687 5688 5688 5688 5689 5689 5690 5691 5692 5693 5694 5694 5695
5617 5618 5619 5620 5622 5623 5625 5626 5627 5629 5630 5632 5633 5634 5635 5636 5637 5638 5639 5640 5641 5643 5644 5644 5645 5646 5647 5648 5648 5649 5650 5650 5651 5652 5653 5654 5654 5654 5654 5655 5656 5657 5658 5659 5660 5661 5662 5662 5663 5664 5665 5666 5667 5668 5668 5670 5671 5671 5671 5671 5672 5673 5673 5674 5675 5676 5677 5677 5678 5679 5680 5681 5681 5681 5680 5680 5680 5680 5681 5683 5684 5685 5686 5688 5688 5689 5689
5618 5618 5619 5620 5621 5623 5624 5625 5626 5628 5629 5630 5631 5632 5632 5633 5634 5635 5636 5637 5638 5639 5640 5640 5641 5642 5643 5644 5644 5645 5646 5647 5647 5648 5649 5649 5649 5649 5650 5651 5652 5653 5654 5655 5656 5657 5657 5658 5658 5659 5659 5660 5661 5662 5662 5663 5664 5665 5665 5665 5666 5667 5667 5668 5670 5671 5670 5669 5670 5672 5673 5674 5675 5675 5674 5674 5675 5676 5676 5677 5679 5680 5681 5682 5682 5683 5683
5618 5619 5620 5620 5621 5622 5623 5624 5625 5626 5627 5628 5629 5630 5630 5631 5632 5633 5634 5634 5635 5636 5636 5637 5638 5638 5639 5640 5641 5641 5642 5643 5643 5643 5644 5644 5644 5645 5645 5646 5647 5648 5649 5649 5650 5651 5652 5653 5653 5654 5654 5654 5654 5655 5656 5657 5658 5659 5660 5660 5661 5661 5661 5663 5665 5665 5664 5664 5665 5667 5667 5669 5671 5671 5669 5669 5671 5673 5673 5673 5674 5675 5675 5676 5676 5677 5677
5619 5619 5620 5621 5621 5622 5623 5623 5624 5625 5626 5626 5627 5628 5629 5629 5630 5630 5631 5631 5632 5632 5633 5634 5634 5635 5635 5636 5636 5637 5638 5638 5638 5638 5638 5638 5639 5640 5641 5642 5642 5643 5643 5644 5644 5645 5646 5647 5648 5648 5649 5649 5649 5649 5650 5651 5652 5653 5654 5655 5656 5656 5657 5657 5659 5660 5660 5661 5662 5663 5663 5664 5666 5666 5666 5666 5667 5668 5668 5668 5669 5669 5670 5670 5671 5671 5671
5620 5620 5620 5621 5621 5622 5622 5623 5624 5624 5625 5626 5626 5627 5627 5628 5628 5628 5628 5629 5629 5630 5630 5631 5631 5632 5632 5633 5633 5633 5633 5633 5633 5633 5634 5634 5635 5636 5637 5637 5638 5638 5639 5640 5640 5640 5641 5642 5643 5644 5644 5644 5644 5645 5646 5646 5647 5648 5649 5650 5651 5652 5653 5654 5654 5655 5656 5657 5658 5659 5659 5660 5661 5662 5662 5662 5663 5663 5663 5663 5664 5664 5664 5665 5665 5666 5666
5620 5621 5621 5621 5621 5621 5622 5622 5623 5623 5624 5624 5625 5626 5626 5626 5627 5627 5628 5628 5628 5628 5628 5629 5629 5630 5630 5630 5630 5630 5630 5630 5630 5630 5631 5632 5632 5633 5633 5633 5633 5634 5634 5635 5635 5636 5637 5638 5639 5640 5640 5640 5640 5641 5642 5642 5643 5644 5645 5646 5648 5649 5649 5650 5650 5651 5652 5653 5655 5655 5656 5657 5657 5657 5657 5657 5657 5658 5658 5658 5658 5659 5659 5660 5660 5660 5660
5621 5621 5621 5621 5621 5621 5621 5622 5622 5623 5623 5623 5624 5624 5625 5625 5626 5626 5627 5627 5627 5627 5627 5628 5628 5628 5627 5627 5628 5628 5628 5628 5629 5629 5629 5629 5629 5629 5630 5630 5629 5629 5630 5630 5631 5632 5634 5635 5635 5636 5636 5636 5637 5638 5639 5639 5640 5641 5641 5642 5643 5644 5645 5645 5646 5647 5647 5649 5650 5651 5652 5653 5653 5652 5651 5651 5652 5652 5652 5652 5653 5654 5654 5654 5654 5654 5654
5622 5622 5622 5622 5622 5622 5622 5622 5622 5622 5622 5622 5622 5623 5623 5624 5624 5625 5625 5625 5625 5626 5626 5626 5626 5626 5626 5626 5626 5626 5626 5626 5626 5626 5627 5627 5627 5627 5627 5627 5627 5627 5627 5628 5628 5629 5629 5630 5631 5632 5632 5633 5634 5635 5635 5636 5636 5637 5638 5638 5639 5640 5640 5641 5642 5642 5643 5644 5645 5646 5646 5647 5647 5646 5645 5645 5646 5646 5646 5647 5647 5648 5648 5648 5648 5648 5648
5623 5623 5623 5622 5622 5622 5622 5622 5621 5621 5622 5622 5622 5622 5622 5622 5623 5622 5622 5623 5623 5623 5623 5623 5623 5623 5623 5624 5624 5623 5623 5623 5624 5624 5624 5624 5624 5624 5624 5624 5624 5624 5624 5625 5626 5626 5626 5626 5627 5627 5628 5629 5630 5631 5631 5631 5632 5632 5633 5634 5635 5635 5635 5636 5637 5638 5639 5639 5640 5640 5640 5641 5641 5640 5640 5640 5640 5640 5640 5641 5641 5642 5642 5642 5642 5642 5642
5623 5623 5623 5622 5622 5621 5621 5621 5621 5621 5621 5621 5621 5621 5621 5622 5621 5621 5620 5620 5620 5621 5621 5621 5621 5621 5621 5621 5621 5621 5621 5621 5621 5622 5622 5622 5622 5622 5622 5622 5622 5622 5622 5622 5622 5622 5622 5623 5623 5623 5624 5624 5625 5626 5626 5626 5627 5627 5628 5629 5629 5629 5629 5630 5631 5632 5633 5633 5634 5635 5635 5635 5635 5635 5635 5634 5634 5634 5634 5634 5635 5635 5635 5635 5636 5636 5636
5622 5622 5622 5622 5622 5621 5621 5621 5621 5620 5620 5620 5619 5619 5619 5620 5620 5620 5619 5619 5618 5618 5619 5619 5619 5619 5619 5618 5618 5618 5618 5618 5618 5618 5618 5618 5619 5619 5619 5619 5619 5619 5619 5619 5618 5618 5618 5618 5619 5619 5619 5620 5620 5620 5620 5621 5621 5622 5622 5623 5623 5623 5624 5624 5625 5625 5626 5627 5627 5628 5628 5628 5629 5629 5628 5628 5628 5628 5628 5629 5629 5629 5629 5629 5629 5630 5630
5622 5622 5622 5621 5621 5621 5620 5620 5619 5619 5618 5618 5618 5617 5617 5617 5618 5618 5618 5617 5616 5616 5615 5616 5616 5615 5615 5615 5614 5614 5614 5614 5614 5613 5613 5614 5614 5614 5614 5614 5615 5615 5615 5614 5614 5614 5613 5613 5614 5614 5614 5614 5614 5615 5615 5615 5615 5616 5616 5617 5617 5618 5618 5618 5618 5619 5619 5620 5620 5621 5621 5621 5621 5621 5621 5621 5620 5621 5621 5622 5622 5622 5622 5622 5622 5623 5623
5621 5621 5620 5620 5619 5619 5618 5617 5617 5617 5616 5615 5615 5614 5614 5614 5614 5614 5614 5614 5613 5612 5611 5612 5612 5611 5610 5610 5611 5610 5610 5610 5609 5609 5608 5608 5608 5608 5608 5608 5609 5609 5609 5609 5609 5609 5609 5609 5609 5609 5609 5609 5609 5609 5610 5610 5610 5610 5610 5610 5611 5611 5612 5612 5613 5613 5613 5613 5613 5613 5614 5614 5614 5614 5614 5614 5614 5614 5614 5614 5615 5615 5614 5614 5615 5615 5616